Location: Banksville Park
(38.5557°N, 75.1182°W)
Time: 14:16:46
(UTC+00:00)

Okean 1 - Pass Details

Date: 19 September 2020
Orbit: 537 x 556 km, 82.5° (Epoch: 27 October)

Event Time Altitude Azimuth Distance (km) Brightness Sun altitude
Rises 09:54:41 0° 173° (S) 2,723 6.8 -10.8°
Reaches altitude 10° 09:56:54 10° 167° (SSE) 1,833 6.0 -10.4°
Maximum altitude 10:00:47 48° 93° (E) 738 4.5 -9.6°
Drops below altitude 10° 10:04:42 10° 19° (NNE) 1,846 6.4 -8.9°
Sets 10:06:55 0° 14° (NNE) 2,745 7.2 -8.4°
